Retour au catalogue

GEOSKAN-6

ActifScienceSSO
NORAD 64879·PAYLOAD·🇷🇺 Russia
Ce nom de satellite n'a pas encore été confirmé par des sources officielles.

Lancé Jul 25, 2025 depuis Vostochny Cosmodrome

Loading…

Prochains Passages (prochaines 24 heures)

TLE

FraisSource: Space-Track

Époque: Sep 14, 2026, 22:08 UTC

1 64879U 25155D   26257.92246590  .00010717  00000-0  35222-3 0  9994
2 64879  97.4667 226.9761 0006369 203.6466 156.4484 15.31715728 94497

Suivez GEOSKAN-6 en temps réel avec AllMySat

Download on the App Store